Date String (YYYY-MM-DD hh:mm:ss) UTC,Instrument flags,Ambient pressure (hPa),Sample flow (lpm),Bypass flow (lpm),Sample temperature (°C),Ambient temperature (°C),ASC tube jacket temperature (°C),LED temperature (°C),Box temperature (°C),Sample RH (%),Span deviation,Mass concentration (μg/m³),Mass concentration (μg/m³),Mass concentration (μg/m³)
DateTimeUTC,F1_M11,P_M11,Q1_M11,Q2_M11,T1_M11,T2_M11,T3_M11,T4_M11,T5_M11,U1_M11,ZSPAN_M11,X0_M11,X2_M11,X1_M11
2022-07-30 03:00:00,,0830.3,5.01,0.00,30.6,28.5,00.0,39.0,31.9,34.8,0000.0,0008.78,0004.70,0004.03
2022-07-30 03:01:00,,0830.2,5.01,0.00,30.6,28.6,00.0,39.0,31.9,34.7,0000.0,0009.14,0004.69,0004.03
2022-07-30 03:02:00,,0830.3,5.00,0.00,30.6,28.7,00.0,39.0,32.0,34.5,0000.0,0009.13,0004.67,0004.04
2022-07-30 03:03:00,,0830.4,4.99,0.00,30.6,28.8,00.0,39.0,32.0,34.5,0000.0,0009.04,0004.67,0004.04
2022-07-30 03:04:00,,0830.4,5.01,0.00,30.6,28.8,00.0,39.1,32.0,34.4,0000.0,0008.83,0004.67,0004.07
2022-07-30 03:05:00,,0830.4,5.00,0.00,30.6,28.3,00.0,39.1,31.8,34.5,0000.0,0008.71,0004.66,0004.09
2022-07-30 03:06:00,,0830.5,5.01,0.00,30.5,27.8,00.0,39.0,31.7,34.0,0000.0,0008.57,0004.64,0004.10
2022-07-30 03:07:00,,0830.5,5.00,0.00,30.5,27.7,00.0,39.0,31.7,34.1,0000.0,0008.68,0004.70,0004.11
2022-07-30 03:08:00,,0830.4,5.00,0.00,30.4,27.7,00.0,39.0,31.6,34.5,0000.0,0008.60,0004.71,0004.14
2022-07-30 03:09:00,,0830.4,5.00,0.00,30.3,27.8,00.0,39.0,31.7,34.8,0000.0,0008.63,0004.74,0004.18
2022-07-30 03:10:00,,0830.4,5.01,0.00,30.3,27.9,00.0,38.9,31.7,35.0,0000.0,0008.74,0004.78,0004.19
2022-07-30 03:11:00,,0830.4,4.99,0.00,30.4,28.0,00.0,38.9,31.8,34.7,0000.0,0008.82,0004.83,0004.21
2022-07-30 03:12:00,,0830.4,5.00,0.00,30.5,28.2,00.0,38.9,31.9,34.4,0000.0,0008.42,0004.84,0004.22
2022-07-30 03:13:00,,0830.4,5.00,0.00,30.6,28.3,00.0,38.9,31.9,34.4,0000.0,0008.24,0004.82,0004.22
2022-07-30 03:14:00,,0830.4,4.99,0.00,30.6,28.4,00.0,38.9,31.9,34.3,0000.0,0008.45,0004.80,0004.24
2022-07-30 03:15:00,,0830.4,5.00,0.00,30.6,28.5,00.0,39.0,31.9,34.2,0000.0,0009.74,0004.89,0004.26
2022-07-30 03:16:00,,0830.4,5.00,0.00,30.6,28.6,00.0,39.0,32.0,34.2,0000.0,0009.94,0004.93,0004.27
2022-07-30 03:17:00,,0830.4,5.00,0.00,30.6,28.7,00.0,39.0,32.0,34.3,0000.0,0010.69,0004.99,0004.29
2022-07-30 03:18:00,,0830.4,5.00,0.00,30.6,28.7,00.0,39.0,32.0,34.4,0000.0,0010.86,0005.02,0004.32
2022-07-30 03:19:00,,0830.4,5.00,0.00,30.6,28.7,00.0,39.1,32.0,34.4,0000.0,0011.52,0005.05,0004.33
2022-07-30 03:20:00,,0830.4,5.00,0.00,30.6,28.2,00.0,39.0,31.8,34.4,0000.0,0011.53,0005.08,0004.35
2022-07-30 03:21:00,,0830.4,5.01,0.00,30.5,27.8,00.0,39.0,31.7,34.3,0000.0,0011.83,0005.11,0004.37
2022-07-30 03:22:00,,0830.4,5.00,0.00,30.4,27.6,00.0,39.0,31.7,34.7,0000.0,0011.77,0005.08,0004.39
2022-07-30 03:23:00,,0830.5,5.01,0.00,30.4,27.7,00.0,39.0,31.7,35.1,0000.0,0012.61,0005.11,0004.41
2022-07-30 03:24:00,,0830.4,4.99,0.00,30.5,27.8,00.0,39.0,31.8,34.7,0000.0,0013.78,0005.15,0004.42
2022-07-30 03:25:00,,0830.4,5.00,0.00,30.6,27.9,00.0,38.9,31.8,34.5,0000.0,0013.96,0005.17,0004.43
2022-07-30 03:26:00,,0830.5,5.01,0.00,30.6,28.0,00.0,38.9,31.8,34.5,0000.0,0013.13,0005.13,0004.42
2022-07-30 03:27:00,,0830.5,5.00,0.00,30.6,28.1,00.0,39.0,31.8,34.6,0000.0,0013.03,0005.12,0004.42
2022-07-30 03:28:00,,0830.5,5.00,0.00,30.6,28.3,00.0,39.0,31.9,34.6,0000.0,0012.48,0005.09,0004.42
2022-07-30 03:29:00,,0830.5,5.00,0.00,30.6,28.4,00.0,39.0,31.9,34.7,0000.0,0012.66,0005.03,0004.40
2022-07-30 03:30:00,,0830.6,5.00,0.00,30.6,28.5,00.0,39.0,31.9,34.7,0000.0,0012.04,0005.01,0004.40
2022-07-30 03:31:00,,0830.6,5.00,0.00,30.6,28.6,00.0,39.0,31.9,34.8,0000.0,0012.58,0005.01,0004.39
2022-07-30 03:32:00,,0830.6,5.01,0.00,30.6,28.6,00.0,39.1,32.0,34.8,0000.0,0013.45,0005.02,0004.40
2022-07-30 03:33:00,,0830.6,5.00,0.00,30.6,28.7,00.0,39.1,32.0,34.8,0000.0,0013.45,0005.08,0004.41
2022-07-30 03:34:00,,0830.6,5.00,0.00,30.6,28.8,00.0,39.1,32.0,34.9,0000.0,0012.72,0005.15,0004.41
2022-07-30 03:35:00,,0830.6,5.00,0.00,30.6,28.8,00.0,39.1,32.0,34.9,0000.0,0011.89,0005.22,0004.43
2022-07-30 03:36:00,,0830.5,4.99,0.00,30.6,28.2,00.0,39.1,31.9,35.0,0000.0,0011.66,0005.29,0004.45
2022-07-30 03:37:00,,0830.5,5.01,0.00,30.6,27.7,00.0,39.1,31.9,35.0,0000.0,0011.31,0005.30,0004.46
2022-07-30 03:38:00,,0830.6,4.98,0.00,30.8,27.6,00.0,39.0,31.8,34.7,0000.0,0011.28,0005.32,0004.47
2022-07-30 03:39:00,,0830.6,5.01,0.00,30.8,27.6,00.0,39.0,31.8,34.7,0000.0,0011.37,0005.34,0004.47
2022-07-30 03:40:00,,0830.6,4.99,0.00,30.8,27.7,00.0,39.0,31.7,34.7,0000.0,0011.48,0005.40,0004.50
2022-07-30 03:41:00,,0830.6,5.01,0.00,30.8,27.9,00.0,39.0,31.8,34.7,0000.0,0012.16,0005.43,0004.52
2022-07-30 03:42:00,,0830.6,5.00,0.00,30.8,28.0,00.0,39.0,31.8,34.4,0000.0,0011.92,0005.43,0004.51
2022-07-30 03:43:00,,0830.6,4.99,0.00,30.8,28.1,00.0,39.1,31.9,33.7,0000.0,0010.82,0005.41,0004.51
2022-07-30 03:44:00,,0830.6,5.01,0.00,30.8,28.3,00.0,39.1,31.9,33.3,0000.0,0011.10,0005.36,0004.50
2022-07-30 03:45:00,,0830.6,5.00,0.00,30.8,28.4,00.0,39.1,31.9,33.2,0000.0,0011.74,0005.34,0004.50
2022-07-30 03:46:00,,0830.6,5.00,0.00,30.7,28.5,00.0,39.1,32.0,31.4,0000.0,0011.87,0005.27,0004.49
2022-07-30 03:47:00,,0830.6,5.00,0.00,30.7,28.6,00.0,39.1,32.0,30.6,0000.0,0011.70,0005.21,0004.47
2022-07-30 03:48:00,,0830.6,4.99,0.00,30.7,28.7,00.0,39.2,32.0,30.4,0000.0,0012.66,0005.22,0004.47
2022-07-30 03:49:00,,0830.5,5.00,0.00,30.7,28.7,00.0,39.2,32.0,30.0,0000.0,0013.49,0005.18,0004.46
2022-07-30 03:50:00,,0830.6,5.00,0.00,30.7,28.8,00.0,39.2,32.1,29.6,0000.0,0013.29,0005.13,0004.45
2022-07-30 03:51:00,,0830.6,4.99,0.00,30.7,28.9,00.0,39.2,32.1,29.1,0000.0,0012.48,0005.08,0004.42
2022-07-30 03:52:00,,0830.6,5.00,0.00,30.7,28.9,00.0,39.2,32.1,28.9,0000.0,0012.56,0005.04,0004.40
2022-07-30 03:53:00,,0830.6,5.00,0.00,30.7,28.3,00.0,39.2,31.9,28.7,0000.0,0012.50,0005.01,0004.38
2022-07-30 03:54:00,,0830.5,5.01,0.00,30.6,27.7,00.0,39.2,31.8,28.6,0000.0,0012.32,0004.99,0004.37
2022-07-30 03:55:00,,0830.5,4.99,0.00,30.5,27.6,00.0,39.1,31.7,28.7,0000.0,0011.89,0004.99,0004.37
2022-07-30 03:56:00,,0830.5,5.01,0.00,30.4,27.6,00.0,39.1,31.7,29.0,0000.0,0011.04,0004.96,0004.36
2022-07-30 03:57:00,,0830.5,4.99,0.00,30.4,27.7,00.0,39.1,31.7,29.0,0000.0,0010.74,0004.95,0004.34
2022-07-30 03:58:00,,0830.5,5.01,0.00,30.3,27.8,00.0,39.0,31.7,29.0,0000.0,0010.82,0004.96,0004.34
2022-07-30 03:59:00,,0830.5,4.99,0.00,30.3,28.0,00.0,39.0,31.7,29.1,0000.0,0009.70,0004.91,0004.34
